Weather History for KFLG - October, 2012

Change the Weather History Date:

Saturday, October 6, 2012

  Actual Average Record
Temperature  
Mean Temperature 53 °F 50 °F  
Max Temperature 69 °F 66 °F 81 °F (1987)
Min Temperature 37 °F 35 °F 18 °F (1912)
Degree Days  
Heating Degree Days 12 15  
Month to date heating degree days 51 84  
Since 1 July heating degree days 261 401  
Cooling Degree Days 0 0  
Month to date cooling degree days 0 0  
Year to date cooling degree days 164 117  
Growing Degree Days 4 (Base 50)    
Moisture  
Dew Point 28 °F    
Average Humidity 43    
Maximum Humidity 64    
Minimum Humidity 21    
Precipitation  
Precipitation 0.00 in 0.06 in 2.34 in (1993)
Month to date precipitation 0.00 0.36  
Year to date precipitation 10.76 16.93  
Snow  
Snow 0.00 in 0.00 in 0.70 in (1912)
Month to date snowfall 0.0 0.1  
Since 1 July snowfall 0.0 0.1  
Snow Depth 0.00 in    
Sea Level Pressure  
Sea Level Pressure 29.98 in    
Wind  
Wind Speed 6 mph (SW)    
Max Wind Speed 21 mph    
Max Gust Speed 29 mph    
Visibility 10 miles    
Events      
T = Trace of Precipitation, MM = Missing Value Source: NWS Daily Summary

Daily Weather History Graph

Daily Weather History Graph

Search for Another Location

Airport or City:

Trip Planner

Search our weather history database for the weather conditions in past years. The results will help you decide how hot, cold, wet, or windy it might be!

Date:

Astronomy

Oct. 06, 2012 Rise Set
Actual Time 6:25 AM MST 6:02 PM MST
Civil Twilight 6:00 AM MST 6:28 PM MST
Nautical Twilight 5:31 AM MST 6:57 PM MST
Astronomical Twilight 5:01 AM MST 7:26 PM MST
Moon 10:31 PM MST (10/6) 12:12 PM MST (10/6)
Length of Visible Light 12h 27m
Length of Day
11h 37m
Waning Gibbous, 64% of the Moon is Illuminated
Oct 6
Waning Gibbous
Oct 8
Last Quarter
Oct 15
New
Oct 21
First Quarter
Oct 29
Full

Hourly Weather History & Observations

Time (MST) Temp. Dew Point Humidity Pressure Visibility Wind Dir Wind Speed Gust Speed Precip Events Conditions
12:57 AM 43.0 °F 26.1 °F 51% 30.00 in 10.0 mi Calm Calm - N/A   Clear
1:57 AM 42.1 °F 27.0 °F 55% 30.00 in 10.0 mi Calm Calm - N/A   Clear
2:57 AM 41.0 °F 26.1 °F 55% 29.98 in 10.0 mi Calm Calm - N/A   Clear
3:57 AM 42.1 °F 27.0 °F 55% 29.98 in 10.0 mi Calm Calm - N/A   Clear
4:57 AM 41.0 °F 27.0 °F 57% 29.99 in 10.0 mi Calm Calm - N/A   Clear
5:57 AM 39.0 °F 28.0 °F 65% 30.01 in 10.0 mi Calm Calm - N/A   Clear
6:57 AM 39.0 °F 28.0 °F 65% 30.03 in 10.0 mi Calm Calm - N/A   Clear
7:57 AM 44.1 °F 30.0 °F 58% 30.04 in 10.0 mi Calm Calm - N/A   Clear
8:57 AM 55.0 °F 33.1 °F 43% 30.01 in 10.0 mi Calm Calm - N/A   Clear
9:57 AM 62.1 °F 30.9 °F 31% 29.99 in 10.0 mi SSW 9.2 mph - N/A   Clear
10:57 AM 64.9 °F 28.9 °F 26% 29.97 in 10.0 mi SW 8.1 mph - N/A   Clear
11:57 AM 66.9 °F 28.9 °F 24% 29.95 in 10.0 mi WSW 15.0 mph 18.4 mph N/A   Clear
12:32 PM 68.0 °F 28.4 °F 23% 30.17 in 10.0 mi SW 13.8 mph 21.9 mph N/A   Clear
12:57 PM 69.1 °F 28.9 °F 22% 29.93 in 10.0 mi SW 17.3 mph 23.0 mph N/A   Clear
1:57 PM 68.0 °F 27.0 °F 21% 29.92 in 10.0 mi SSW 15.0 mph 23.0 mph N/A   Clear
2:57 PM 68.0 °F 26.1 °F 21% 29.91 in 10.0 mi South 18.4 mph 26.5 mph N/A   Clear
3:57 PM 68.0 °F 26.1 °F 21% 29.91 in 10.0 mi SW 16.1 mph 25.3 mph N/A   Clear
6:57 PM 57.9 °F 30.9 °F 36% 29.96 in 10.0 mi SW 10.4 mph - N/A   Clear
7:57 PM 55.9 °F 30.9 °F 39% 29.97 in 10.0 mi WSW 6.9 mph - N/A   Clear
8:57 PM 48.0 °F 30.0 °F 50% 29.96 in 10.0 mi NNE 3.5 mph - N/A   Clear
9:57 PM 43.0 °F 28.9 °F 58% 29.96 in 10.0 mi Calm Calm - N/A   Clear
10:57 PM 39.9 °F 28.0 °F 63% 29.96 in 10.0 mi Calm Calm - N/A   Clear
11:57 PM 37.0 °F 26.1 °F 65% 29.96 in 10.0 mi Calm Calm - N/A   Clear